Weather History for Whiting Fld NAS, FL

Change the Weather History Date:

Tuesday, December 11, 2012

  Actual Average Record
Temperature  
Mean Temperature 48 °F -  
Max Temperature 52 °F 60 °F 80 °F (2007)
Min Temperature 43 °F 42 °F 33 °F (2003)
Degree Days  
Heating Degree Days 17    
Moisture  
Dew Point 39 °F    
Average Humidity 73    
Maximum Humidity 89    
Minimum Humidity 63    
Precipitation  
Precipitation 0.00 in - - ()
Sea Level Pressure  
Sea Level Pressure 30.01 in    
Wind  
Wind Speed 8 mph (North)    
Max Wind Speed 13 mph    
Max Gust Speed 17 mph    
Visibility 9 miles    
Events Rain    
Averages and records for this station are not official NWS values.
T = Trace of Precipitation, MM = Missing Value Source: NWS Daily Summary

Daily Weather History Graph

Daily Weather History Graph

Search for Another Location

Airport:

Trip Planner

Search our weather history database for the weather conditions in past years. The results will help you decide how hot, cold, wet, or windy it might be!

Date:

Astronomy

Dec. 11, 2012 Rise Set
Actual Time 6:35 AM CST 4:47 PM CST
Civil Twilight 6:09 AM CST 5:13 PM CST
Nautical Twilight 5:39 AM CST 5:43 PM CST
Astronomical Twilight 5:09 AM CST 6:13 PM CST
Moon 4:33 AM CST (12/11) 3:23 PM CST (12/11)
Length of Visible Light 11h 04m
Length of Day
10h 11m
Waning Crescent, 4% of the Moon is Illuminated
Dec 11
Waning Crescent
Dec 13
New
Dec 19
First Quarter
Dec 28
Full
Jan 4
Last Quarter

Hourly Weather History & Observations

Time (CST) Temp. Windchill Dew Point Humidity Pressure Visibility Wind Dir Wind Speed Gust Speed Precip Events Conditions
12:56 AM 52.0 °F - 46.9 °F 83% 29.88 in 9.0 mi North 8.1 mph - N/A   Overcast
1:56 AM 51.1 °F - 45.0 °F 80% 29.90 in 6.0 mi NNW 8.1 mph - N/A   Haze
2:40 AM 48.2 °F - 42.8 °F 82% 29.93 in 9.0 mi North 10.4 mph 17.3 mph N/A   Overcast
2:56 AM 48.9 °F - 43.0 °F 80% 29.89 in 9.0 mi North 9.2 mph 17.3 mph N/A   Overcast
3:38 AM 48.2 °F - 42.8 °F 82% 29.93 in 8.0 mi North 8.1 mph - N/A   Overcast
3:56 AM 48.9 °F - 42.1 °F 77% 29.90 in 8.0 mi North 6.9 mph - N/A   Overcast
4:56 AM 48.0 °F - 41.0 °F 77% 29.92 in 8.0 mi NNW 6.9 mph - N/A   Overcast
5:35 AM 46.4 °F 41.9 °F 39.2 °F 76% 29.97 in 8.0 mi North 9.2 mph - N/A   Overcast
5:56 AM 46.9 °F - 39.0 °F 74% 29.95 in 9.0 mi North 12.7 mph - N/A   Overcast
6:56 AM 46.0 °F 40.6 °F 37.9 °F 73% 29.96 in 9.0 mi North 11.5 mph - N/A   Overcast
7:56 AM 46.0 °F 42.5 °F 37.9 °F 73% 30.01 in 8.0 mi North 6.9 mph - N/A   Overcast
8:56 AM 46.9 °F - 37.9 °F 71% 30.03 in 10.0 mi NNE 6.9 mph - N/A   Overcast
9:56 AM 48.0 °F - 37.9 °F 68% 30.03 in 9.0 mi NNW 10.4 mph - N/A   Overcast
10:56 AM 48.0 °F - 37.9 °F 68% 30.04 in 10.0 mi North 11.5 mph - N/A   Overcast
11:56 AM 48.9 °F - 37.9 °F 66% 30.01 in 10.0 mi North 5.8 mph - N/A   Overcast
12:56 PM 48.9 °F - 37.0 °F 64% 30.00 in 9.0 mi North 10.4 mph - N/A   Overcast
1:56 PM 48.9 °F - 37.0 °F 64% 30.00 in 9.0 mi North 11.5 mph - N/A   Overcast
2:56 PM 48.0 °F - 36.0 °F 63% 30.01 in 10.0 mi North 10.4 mph - N/A   Overcast
3:56 PM 46.9 °F - 35.1 °F 63% 30.02 in 10.0 mi North 9.2 mph - N/A   Overcast
4:56 PM 46.9 °F - 36.0 °F 66% 30.03 in 10.0 mi NNE 8.1 mph - N/A   Overcast
5:56 PM 46.0 °F 41.0 °F 36.0 °F 68% 30.06 in 10.0 mi NNW 10.4 mph - N/A   Overcast
6:56 PM 46.0 °F 42.5 °F 36.0 °F 68% 30.08 in 10.0 mi NNW 6.9 mph - N/A   Overcast
7:56 PM 46.0 °F 41.4 °F 36.0 °F 68% 30.11 in 10.0 mi North 9.2 mph - N/A   Overcast
8:22 PM 44.6 °F 42.2 °F 35.6 °F 71% 30.13 in 8.0 mi NNE 4.6 mph - 0.00 in Rain Light Rain
8:56 PM 44.1 °F 42.5 °F 37.0 °F 76% 30.11 in 7.0 mi Variable 3.5 mph - 0.00 in Rain Light Rain
9:56 PM 44.1 °F 41.5 °F 39.9 °F 85% 30.12 in 7.0 mi North 4.6 mph - 0.00 in Rain Light Rain
10:56 PM 44.1 °F 40.1 °F 39.0 °F 82% 30.12 in 7.0 mi NNE 6.9 mph - 0.00 in Rain Light Rain
11:56 PM 43.0 °F 40.3 °F 39.9 °F 89% 30.10 in 7.0 mi North 4.6 mph - 0.00 in   Clear